RBSP A (38752 NORAD) Tracking and Keplerian Element Data

This shows tracking and keplerian element data for the satellite.

Feedback or suggestion? Click here.




ElementValue
Catalog38752
NameRBSP A
Epoch Orbit7081
Epoch Day325.47120917
Epoch Year2019
RAAN126.1641
Inclination9.7832
Eccentricity0.6930658
Argument of Perigee244.8695
Mean Anonmoly30.9669
Mean Motion2.74099442
Decay Rate2.996E-05
L11 38752U 12046A 19325.47120917 .00002996 00000-0 55312-3 0 9994
L22 38752 9.7832 126.1641 6930658 244.8695 30.9669 2.74099442 70812



Live tracking and technical data element details for RBSP A (NORAD 38752). RBSP A can be tracked NOW for your location showing map with azimuth and elevation plus other details from your city location.







IsCatalogInMostPopularTable: catalog: 38752, numindb: 555
Update: records affected: 1



GetName: 38752 RBSP A

Hit Count: updated at: Fri, 16 May 2025 10:38:24 GMT